This demonstration page uses our WeatherBlox Daily Observations layout. Learn more.

Hourly Observations for November 11, 2020

Temp ( °F °C ) Dew Point ( °F °C ) Humidity (%) Winds ( mph kmh ) Pressure ( in mb ) Visibility ( mi km ) Precip ( " mm )
12:15 am 00:15 Partly Cloudy 59 15 57 14 94 94 S 7 11 30.1 1019 10 16.0934 0 0
12:35 am 00:35 Cloudy 59 15 59 15 100 100 SSW 6 9 30.1 1019 10 16.0934 0 0
12:55 am 00:55 Cloudy 59 15 59 15 100 100 S 6 9 30.09 1019 10 16.0934 0 0
1:15 am 01:15 Partly Cloudy 59 15 59 15 100 100 S 10 17 30.07 1018 10 16.0934 0 0
1:35 am 01:35 Clear 59 15 59 15 100 100 S 7 11 30.07 1018 10 16.0934 0 0
1:55 am 01:55 Clear N/A N/A N/A S 9 15 N/A 10 16.0934 0 0
2:15 am 02:15 Mostly Cloudy 59 15 59 15 100 100 S 8 13 30.07 1018 10 16.0934 0 0
2:35 am 02:35 Cloudy 59 15 59 15 100 100 S 5 7 30.06 1018 10 16.0934 0 0
2:55 am 02:55 Cloudy 59 15 59 15 100 100 S 9 15 30.06 1018 10 16.0934 0 0
3:15 am 03:15 Cloudy 59 15 59 15 100 100 S 7 11 30.05 1018 10 16.0934 0 0
3:35 am 03:35 Cloudy 59 15 59 15 100 100 S 8 13 30.05 1018 10 16.0934 0 0
3:55 am 03:55 Partly Cloudy 59 15 59 15 100 100 S 12 19 30.04 1017 10 16.0934 0 0
4:15 am 04:15 Mostly Cloudy 59 15 59 15 100 100 S 12 19 30.04 1017 10 16.0934 0 0
4:35 am 04:35 Cloudy 61 16 61 16 100 100 S 10 17 30.04 1017 10 16.0934 0 0
4:55 am 04:55 Cloudy 61 16 61 16 100 100 S 9 15 30.05 1018 10 16.0934 0 0
5:15 am 05:15 Cloudy 61 16 61 16 100 100 S 10 17 30.04 1017 10 16.0934 0 0
5:35 am 05:35 Cloudy 61 16 61 16 100 100 S 8 13 30.03 1017 10 16.0934 0 0
5:55 am 05:55 Cloudy 61 16 61 16 100 100 S 8 13 30.03 1017 10 16.0934 0 0
6:15 am 06:15 Cloudy 61 16 61 16 100 100 S 12 19 30.03 1017 10 16.0934 0 0
6:35 am 06:35 Cloudy 61 16 61 16 100 100 S 9 15 30.03 1017 10 16.0934 0 0
6:55 am 06:55 Cloudy 61 16 61 16 100 100 S 9 15 30.02 1016 5 8.0467 0 0
7:15 am 07:15 Cloudy 61 16 61 16 100 100 S 10 17 30.03 1017 10 16.0934 0 0
7:35 am 07:35 Cloudy 61 16 61 16 100 100 S 8 13 30.04 1017 10 16.0934 0 0
7:55 am 07:55 Cloudy 61 16 61 16 100 100 SSW 9 15 30.05 1018 7 11.26538 0.01 0.254
8:15 am 08:15 Cloudy N/A N/A N/A SSW 7 11 N/A 7 11.26538 0.02 0.508
8:35 am 08:35 Cloudy N/A N/A N/A S 8 13 N/A 7 11.26538 0.04 1.016
8:55 am 08:55 Cloudy 61 16 61 16 100 100 S 5 7 30.05 1018 4 6.43736 0.09 2.286
9:15 am 09:15 Cloudy 61 16 61 16 100 100 S 8 13 30.06 1018 5 8.0467 0.03 0.762
9:35 am 09:35 Cloudy 61 16 61 16 100 100 SSW 8 13 30.05 1018 7 11.26538 0.06 1.524
9:55 am 09:55 Cloudy 61 16 61 16 100 100 S 7 11 30.04 1017 7 11.26538 0.08 2.032
10:15 am 10:15 Cloudy N/A N/A N/A S 8 13 N/A 7 11.26538 0.02 0.508
10:35 am 10:35 Cloudy 61 16 61 16 100 100 SSW 10 17 30.03 1017 7 11.26538 0.04 1.016
10:55 am 10:55 Cloudy 61 16 61 16 100 100 S 13 20 30.02 1016 7 11.26538 0.06 1.524
11:15 am 11:15 Cloudy 61 16 61 16 100 100 S 10 17 30.02 1016 10 16.0934 0.01 0.254
11:35 am 11:35 Cloudy 61 16 61 16 100 100 S 10 17 30.01 1016 3 4.82802 0.04 1.016
11:55 am 11:55 Cloudy N/A N/A N/A S 10 17 N/A 5 8.0467 0.06 1.524
12:15 pm 12:15 Cloudy N/A N/A N/A S 13 20 N/A 7 11.26538 0.01 0.254
12:35 pm 12:35 Cloudy N/A N/A N/A S 12 19 N/A 7 11.26538 0.02 0.508
12:55 pm 12:55 Cloudy N/A N/A N/A S 8 13 N/A 10 16.0934 0.03 0.762
1:15 pm 13:15 Cloudy 61 16 61 16 100 100 S 10 17 29.94 1014 3 4.82802 0.06 1.524
1:35 pm 13:35 Cloudy N/A N/A N/A S 10 17 N/A 4 6.43736 0.12 3.048
1:55 pm 13:55 Cloudy N/A N/A N/A S 10 17 N/A 4 6.43736 0.16 4.064
2:15 pm 14:15 Cloudy N/A N/A N/A SSE 10 17 N/A 5 8.0467 0.03 0.762
2:35 pm 14:35 Cloudy N/A N/A N/A S 8 13 N/A 7 11.26538 0.04 1.016
2:55 pm 14:55 Cloudy N/A N/A N/A S 9 15 N/A 10 16.0934 0.04 1.016
3:15 pm 15:15 Cloudy 61 16 61 16 100 100 SSW 8 13 29.93 1013 7 11.26538 0.01 0.254
3:35 pm 15:35 Cloudy N/A N/A N/A S 7 11 N/A 10 16.0934 0.01 0.254
3:55 pm 15:55 Cloudy N/A N/A N/A SSW 7 11 N/A 10 16.0934 0.01 0.254
4:15 pm 16:15 Cloudy N/A N/A N/A SW 5 7 N/A 5 8.0467 0 0
4:35 pm 16:35 Cloudy N/A N/A N/A SW 5 7 N/A 7 11.26538 0 0
4:55 pm 16:55 Cloudy 61 16 61 16 100 100 SW 6 9 29.95 1014 10 16.0934 0.01 0.254
5:15 pm 17:15 Cloudy 61 16 61 16 100 100 Calm 29.95 1014 3 4.82802 0.09 2.286
5:35 pm 17:35 Cloudy N/A N/A N/A SSW 7 11 N/A 10 16.0934 0.1 2.54
5:55 pm 17:55 Mostly Cloudy N/A N/A N/A Calm N/A 10 16.0934 0.1 2.54
6:15 pm 18:15 Partly Cloudy N/A N/A N/A Calm N/A 10 16.0934 0 0
6:35 pm 18:35 Mostly Cloudy N/A N/A N/A W 3 6 N/A 1.75 2.816345 0.01 0.254
6:55 pm 18:55 Cloudy N/A N/A N/A Calm N/A 3 4.82802 0.04 1.016
7:15 pm 19:15 Cloudy N/A N/A N/A Calm N/A 3 4.82802 0.07 1.778
7:35 pm 19:35 Cloudy N/A N/A N/A S 3 6 N/A 5 8.0467 0.17 4.318
7:55 pm 19:55 Mostly Cloudy N/A N/A N/A Calm N/A 10 16.0934 0.17 4.318
8:15 pm 20:15 Cloudy N/A N/A N/A Calm N/A 5 8.0467 0 0
8:35 pm 20:35 Cloudy N/A N/A N/A Calm N/A 4 6.43736 0 0
8:55 pm 20:55 Cloudy N/A N/A N/A Calm N/A 5 8.0467 0 0
9:15 pm 21:15 Cloudy N/A N/A N/A Calm N/A 0.5 0.80467 0 0
9:35 pm 21:35 Cloudy N/A N/A N/A W 3 6 N/A 0.75 1.207005 0 0
9:55 pm 21:55 Cloudy N/A N/A N/A Calm N/A 1.25 2.011675 0 0
10:15 pm 22:15 Cloudy N/A N/A N/A Calm N/A 1.5 2.41401 0.01 0.254
10:35 pm 22:35 Cloudy N/A N/A N/A Calm N/A 0.75 1.207005 0.05 1.27
10:55 pm 22:55 Partly Cloudy N/A N/A N/A SW 5 7 N/A 4 6.43736 0.06 1.524
11:15 pm 23:15 Mostly Cloudy N/A N/A N/A Calm N/A 4 6.43736 0.03 0.762
11:35 pm 23:35 Cloudy with Nearby Thunderstorms N/A N/A N/A Calm N/A 2.5 4.02335 0.1 2.54
11:55 pm 23:55 Cloudy N/A N/A N/A Calm N/A 3 4.82802 0.16 4.064

Powered by AerisWeather